Pleasant Lake, IN

11:37 PM EDT on July 23, 2016 (GMT -0400)
Tri-State Steuben County

Weather History for KANQ - February, 2014

Change the Weather History Date:

Sunday, February 2, 2014

  Actual Average (KFWA) Record (KFWA)
Temperature  
Mean Temperature 17 °F 26 °F  
Max Temperature 24 °F 33 °F 58 °F (2016)
Min Temperature 10 °F 18 °F -17 °F (1951)
Degree Days  
Heating Degree Days 48 39  
Month to date heating degree days 79  
Since 1 July heating degree days 3650  
Cooling Degree Days 0 0  
Month to date cooling degree days 0  
Year to date cooling degree days 0  
Moisture  
Dew Point 15 °F    
Average Humidity 76    
Maximum Humidity 93    
Minimum Humidity 54    
Precipitation  
Precipitation 0.00 in 0.07 in 0.42 in (1973)
Month to date precipitation 0.14  
Year to date precipitation 2.40  
Snow  
Snow 0.00 in 0.40 in 3.30 in (1934)
Month to date snowfall 0.7  
Since 1 July snowfall 21.4  
Snow Depth -    
Sea Level Pressure  
Sea Level Pressure 30.13 in    
Wind  
Wind Speed 5 mph (NNW)    
Max Wind Speed 12 mph    
Max Gust Speed -    
Visibility 10 miles    
Events      
T = Trace of Precipitation, MM = Missing Value Source: NWS Daily Summary

Daily Weather History Graph

Daily Weather History Graph

Search for Another Location

Airport or City:

Trip Planner

Search our weather history database for the weather conditions in past years. The results will help you decide how hot, cold, wet, or windy it might be!

Date:

Astronomy

Feb. 02, 2014 Rise Set
Actual Time 7:51 AM EST 5:57 PM EST
Civil Twilight 7:21 AM EST 6:26 PM EST
Nautical Twilight 6:48 AM EST 6:59 PM EST
Astronomical Twilight 6:16 AM EST 7:32 PM EST
Moon 9:14 AM EST (2/2) 9:44 PM EST (2/2)
Length of Visible Light 11h 04m
Length of Day
10h 06m
Waxing Crescent, 11% of the Moon is Illuminated
Feb 2
Waxing Crescent
Feb 6
First Quarter
Feb 14
Full
Feb 22
Last Quarter
Mar 1
New

Hourly Weather History & Observations

Time (EST) Temp. Windchill Dew Point Humidity Pressure Visibility Wind Dir Wind Speed Gust Speed Precip Events Conditions
12:35 AM 24.8 °F 19.1 °F 15.8 °F 69% 29.97 in 8.0 mi NNW 4.6 mph - N/A   Overcast
12:55 AM 24.8 °F 19.1 °F 21.2 °F 86% 29.98 in 7.0 mi NNW 4.6 mph - N/A   Overcast
1:15 AM 24.8 °F 17.9 °F 23.0 °F 93% 29.99 in 6.0 mi NNW 5.8 mph - N/A   Overcast
1:35 AM 24.8 °F 17.9 °F 23.0 °F 93% 29.98 in 6.0 mi North 5.8 mph - N/A   Overcast
1:55 AM 24.8 °F 17.9 °F 17.6 °F 74% 29.99 in 7.0 mi NW 5.8 mph - N/A   Overcast
2:15 AM 24.8 °F 15.3 °F 14.0 °F 64% 29.99 in 6.0 mi NNW 9.2 mph - N/A   Overcast
2:35 AM 24.8 °F 16.1 °F 21.2 °F 86% 30.01 in 6.0 mi NNW 8.1 mph - N/A   Overcast
2:55 AM 24.8 °F 16.9 °F 21.2 °F 86% 30.01 in 7.0 mi NNW 6.9 mph - N/A   Overcast
3:15 AM 24.8 °F 19.1 °F 21.2 °F 86% 30.02 in 10.0 mi NNW 4.6 mph - N/A   Overcast
3:35 AM 24.8 °F 19.1 °F 17.6 °F 74% 30.03 in 10.0 mi NNW 4.6 mph - N/A   Overcast
3:55 AM 23.0 °F 17.0 °F 12.2 °F 63% 30.02 in 10.0 mi North 4.6 mph - N/A   Overcast
4:15 AM 23.0 °F 17.0 °F 21.2 °F 93% 30.03 in 10.0 mi North 4.6 mph - N/A   Overcast
4:35 AM 23.0 °F 15.8 °F 21.2 °F 93% 30.04 in 10.0 mi Variable 5.8 mph - N/A   Overcast
4:55 AM 23.0 °F 15.8 °F 17.6 °F 80% 30.04 in 10.0 mi NNW 5.8 mph - N/A   Overcast
5:15 AM 21.2 °F 13.6 °F 12.2 °F 68% 30.04 in 10.0 mi North 5.8 mph - N/A   Overcast
5:35 AM 21.2 °F 16.4 °F 19.4 °F 93% 30.04 in 10.0 mi North 3.5 mph - N/A   Overcast
5:55 AM 21.2 °F 16.4 °F 19.4 °F 93% 30.06 in 10.0 mi North 3.5 mph - N/A   Mostly Cloudy
6:15 AM 21.2 °F - 19.4 °F 93% 30.06 in 10.0 mi Calm Calm - N/A   Overcast
6:35 AM 21.2 °F - 19.4 °F 93% 30.05 in 10.0 mi Calm Calm - N/A   Mostly Cloudy
6:55 AM 23.0 °F - 12.2 °F 63% 30.05 in 10.0 mi Calm Calm - N/A   Mostly Cloudy
7:15 AM 23.0 °F - 10.4 °F 59% 30.07 in 10.0 mi Calm Calm - N/A   Overcast
7:35 AM 23.0 °F - 10.4 °F 59% 30.07 in 10.0 mi Calm Calm - N/A   Overcast
7:55 AM 23.0 °F 18.4 °F 10.4 °F 59% 30.08 in 10.0 mi NW 3.5 mph - N/A   Overcast
8:15 AM 23.0 °F - 14.0 °F 68% 30.09 in 10.0 mi Calm Calm - N/A   Overcast
8:35 AM 23.0 °F - 19.4 °F 86% 30.10 in 10.0 mi Calm Calm - N/A   Overcast
8:55 AM 23.0 °F 17.0 °F 19.4 °F 86% 30.10 in 10.0 mi NW 4.6 mph - N/A   Overcast
9:15 AM 23.0 °F 17.0 °F 14.0 °F 68% 30.11 in 10.0 mi NW 4.6 mph - N/A   Overcast
9:35 AM 23.0 °F 17.0 °F 14.0 °F 68% 30.12 in 10.0 mi NW 4.6 mph - N/A   Overcast
9:55 AM 23.0 °F 17.0 °F 19.4 °F 86% 30.13 in 10.0 mi NW 4.6 mph - N/A   Overcast
10:15 AM 24.8 °F 16.9 °F 19.4 °F 80% 30.14 in 10.0 mi NW 6.9 mph - N/A   Overcast
10:35 AM 24.8 °F 16.9 °F 12.2 °F 59% 30.15 in 10.0 mi NNW 6.9 mph - N/A   Overcast
10:55 AM 24.8 °F 16.1 °F 19.4 °F 80% 30.15 in 10.0 mi NW 8.1 mph - N/A   Overcast
11:15 AM 24.8 °F 16.1 °F 19.4 °F 80% 30.16 in 8.0 mi NW 8.1 mph - N/A   Overcast
11:35 AM 24.8 °F 16.1 °F 19.4 °F 80% 30.16 in 10.0 mi NW 8.1 mph - N/A   Overcast
11:55 AM 24.8 °F 16.1 °F 19.4 °F 80% 30.16 in 10.0 mi NW 8.1 mph - N/A   Overcast
12:15 PM 24.8 °F 14.0 °F 17.6 °F 74% 30.17 in 10.0 mi WNW 11.5 mph - N/A   Overcast
12:35 PM 24.8 °F 15.3 °F 12.2 °F 59% 30.15 in 10.0 mi NW 9.2 mph - N/A   Overcast
12:55 PM 24.8 °F 16.1 °F 15.8 °F 69% 30.15 in 10.0 mi NW 8.1 mph - N/A   Overcast
1:15 PM 24.8 °F 15.3 °F 17.6 °F 74% 30.14 in 10.0 mi NW 9.2 mph - N/A   Overcast
1:35 PM 24.8 °F 15.3 °F 17.6 °F 74% 30.12 in 10.0 mi NW 9.2 mph - N/A   Overcast
1:55 PM 24.8 °F 16.1 °F 17.6 °F 74% 30.13 in 10.0 mi NW 8.1 mph - N/A   Overcast
2:15 PM 24.8 °F 16.1 °F 15.8 °F 69% 30.14 in 10.0 mi NNW 8.1 mph - N/A   Overcast
2:35 PM 24.8 °F 16.1 °F 10.4 °F 54% 30.12 in 10.0 mi North 8.1 mph - N/A   Mostly Cloudy
2:55 PM 24.8 °F 14.6 °F 10.4 °F 54% 30.14 in 10.0 mi NW 10.4 mph - N/A   Partly Cloudy
3:15 PM 24.8 °F 16.1 °F 10.4 °F 54% 30.14 in 10.0 mi NNW 8.1 mph - N/A   Clear
3:35 PM 23.0 °F 13.1 °F 14.0 °F 68% 30.16 in 10.0 mi NNW 9.2 mph - N/A   Clear
3:55 PM 23.0 °F 14.7 °F 14.0 °F 68% 30.18 in 10.0 mi NNW 6.9 mph - N/A   Partly Cloudy
4:15 PM 23.0 °F 15.8 °F 14.0 °F 68% 30.17 in 10.0 mi NNW 5.8 mph - N/A   Scattered Clouds
4:35 PM 23.0 °F 15.8 °F 12.2 °F 63% 30.18 in 10.0 mi NNW 5.8 mph - N/A   Mostly Cloudy
4:55 PM 21.2 °F 11.7 °F 8.6 °F 58% 30.19 in 10.0 mi NNW 8.1 mph - N/A   Overcast
5:15 PM 21.2 °F 13.6 °F 14.0 °F 74% 30.20 in 10.0 mi NNW 5.8 mph - N/A   Mostly Cloudy
5:35 PM 21.2 °F 13.6 °F 14.0 °F 74% 30.19 in 10.0 mi North 5.8 mph - N/A   Partly Cloudy
5:55 PM 21.2 °F 12.6 °F 14.0 °F 74% 30.20 in 10.0 mi NNW 6.9 mph - N/A   Partly Cloudy
6:15 PM 19.4 °F 12.8 °F 12.2 °F 74% 30.21 in 10.0 mi NNW 4.6 mph - N/A   Partly Cloudy
6:35 PM 19.4 °F 14.3 °F 12.2 °F 74% 30.21 in 10.0 mi NW 3.5 mph - N/A   Scattered Clouds
6:55 PM 19.4 °F 11.5 °F 12.2 °F 74% 30.21 in 10.0 mi NNW 5.8 mph - N/A   Mostly Cloudy
7:15 PM 19.4 °F 12.8 °F 12.2 °F 74% 30.22 in 10.0 mi NNW 4.6 mph - N/A   Partly Cloudy
7:35 PM 19.4 °F 14.3 °F 12.2 °F 74% 30.23 in 10.0 mi NW 3.5 mph - N/A   Mostly Cloudy
7:55 PM 17.6 °F - 12.2 °F 79% 30.22 in 10.0 mi Calm Calm - N/A   Partly Cloudy
8:15 PM 17.6 °F - 12.2 °F 79% 30.22 in 10.0 mi Calm Calm - N/A   Clear
8:35 PM 17.6 °F - 12.2 °F 79% 30.23 in 10.0 mi Calm Calm - N/A   Clear
8:55 PM 15.8 °F 10.2 °F 10.4 °F 79% 30.23 in 10.0 mi NW 3.5 mph - N/A   Partly Cloudy
9:15 PM 15.8 °F 10.2 °F 10.4 °F 79% 30.22 in 10.0 mi NNW 3.5 mph - N/A   Scattered Clouds
9:35 PM 15.8 °F 10.2 °F 10.4 °F 79% 30.21 in 10.0 mi North 3.5 mph - N/A   Mostly Cloudy
9:55 PM 15.8 °F - 10.4 °F 79% 30.22 in 10.0 mi Calm Calm - N/A   Scattered Clouds
10:15 PM 15.8 °F 10.2 °F 10.4 °F 79% 30.22 in 10.0 mi NNW 3.5 mph - N/A   Clear
10:35 PM 15.8 °F 10.2 °F 10.4 °F 79% 30.21 in 10.0 mi North 3.5 mph - N/A   Clear
10:55 PM 15.8 °F - 10.4 °F 79% 30.21 in 10.0 mi Calm Calm - N/A   Clear
11:15 PM 14.0 °F - 10.4 °F 86% 30.22 in 10.0 mi Calm Calm - N/A   Clear
11:35 PM 10.4 °F - 8.6 °F 92% 30.23 in 10.0 mi Calm Calm - N/A   Clear
11:55 PM 10.4 °F - 8.6 °F 92% 30.24 in 10.0 mi Calm Calm - N/A   Clear